User: anonymous
Location: Unspecified
(0.0000°N, 0.0000°E)
Time: 04:48:46
(UTC+00:00)
Language:

CUTE 1.7 & AOD 2 - Orbit

View from above orbital plane
View from above orbital plane
View from above satellite
View from above satellite

Ground track
Ground track

The orbit data is extracted from the following two-line orbital elements,

1 32785U 08021C   14293.79141725  .00004214  00000-0  49074-3 0   956
2 32785 097.6846 340.8834 0014987 132.7380 290.3997 14.85697841350673
Epoch (UTC): 20 October 2014 18:59:38
Eccentricity: 0.0014987
inclination: 97.6846°
perigee height: 601 km
apogee height: 622 km
right ascension of ascending node: 340.8834°
argument of perigee: 132.7380°
revolutions per day: 14.85697841
mean anomaly at epoch: 290.3997°
orbit number at epoch: 35067

The dashed part of the orbit path shows where the satellite is in the earth's shadow,  

DLR